When you browse on this site, cookies collect data to enhance your experience and personalize the content and advertising you see.
Visit our Privacy Policy to learn more. By continuing to use the site, you agree to this use of cookies and data.
  • In Lithuania
  • List of Countries
  • For 7 days
  • Water Temperature
  • Weather Map
  • Weather Widgets
  • user-avatar
    Login

    Hourly Weather Kolesovka

    Today, 6 June, Saturday

    Time Temperature Precipitation Wind Pressure Humidity
    00:00 +11°C° 0.6 mm 3 mps 744 mmHg 97%
    01:00 +12°C° 0.1 mm 2 mps 744 mmHg 97%
    02:00 +12°C° 0.1 mm 2 mps 745 mmHg 97%
    03:00 +13°C° 0.1 mm 2 mps 745 mmHg 98%
    04:00 +13°C° 0 mm 2 mps 745 mmHg 97%
    05:00 +13°C° 0 mm 3 mps 745 mmHg 97%
    06:00 +14°C° 0 mm 3 mps 745 mmHg 96%
    07:00 +14°C° 0 mm 3 mps 745 mmHg 94%
    08:00 +16°C° 0 mm 3 mps 745 mmHg 92%
    09:00 +17°C° 0 mm 4 mps 746 mmHg 90%
    10:00 +18°C° 0 mm 4 mps 746 mmHg 89%
    11:00 +18°C° 0 mm 4 mps 746 mmHg 88%
    12:00 +19°C° 0 mm 4 mps 746 mmHg 87%
    13:00 +20°C° 0.1 mm 4 mps 746 mmHg 85%
    14:00 +21°C° 0.1 mm 4 mps 746 mmHg 82%
    15:00 +22°C° 0.1 mm 4 mps 746 mmHg 80%
    16:00 +22°C° 0.5 mm 3 mps 746 mmHg 82%
    17:00 +22°C° 0.5 mm 3 mps 746 mmHg 83%
    18:00 +23°C° 0.5 mm 2 mps 745 mmHg 85%
    19:00 +21°C° 0.1 mm 2 mps 746 mmHg 87%
    20:00 +20°C° 0.1 mm 2 mps 746 mmHg 90%
    21:00 +19°C° 0.1 mm 2 mps 746 mmHg 93%
    22:00 +19°C° 0.7 mm 2 mps 746 mmHg 93%
    23:00 +18°C° 0.7 mm 2 mps 746 mmHg 94%

    Tomorrow, 7 June, Sunday

    Time Temperature Precipitation Wind Pressure Humidity
    00:00 +18°C° 0.7 mm 2 mps 746 mmHg 95%
    01:00 +18°C° 0.1 mm 2 mps 746 mmHg 95%
    02:00 +17°C° 0.1 mm 2 mps 747 mmHg 95%
    03:00 +17°C° 0.1 mm 2 mps 747 mmHg 95%
    04:00 +17°C° 0 mm 2 mps 747 mmHg 94%
    05:00 +18°C° 0 mm 2 mps 747 mmHg 94%
    06:00 +18°C° 0 mm 2 mps 747 mmHg 93%
    07:00 +19°C° 0 mm 2 mps 747 mmHg 91%
    08:00 +20°C° 0 mm 2 mps 748 mmHg 88%
    09:00 +21°C° 0 mm 2 mps 748 mmHg 85%
    10:00 +24°C° 0.7 mm 2 mps 748 mmHg 82%
    11:00 +25°C° 0.7 mm 3 mps 748 mmHg 78%
    12:00 +26°C° 0.7 mm 3 mps 748 mmHg 74%
    13:00 +26°C° 1.6 mm 3 mps 748 mmHg 74%
    14:00 +26°C° 1.6 mm 3 mps 748 mmHg 73%
    15:00 +27°C° 1.6 mm 2 mps 748 mmHg 72%
    16:00 +26°C° 0.6 mm 2 mps 748 mmHg 73%
    17:00 +26°C° 0.6 mm 1 mps 748 mmHg 75%
    18:00 +26°C° 0.6 mm 1 mps 748 mmHg 76%
    19:00 +25°C° 0 mm 1 mps 748 mmHg 80%
    20:00 +23°C° 0 mm 1 mps 748 mmHg 84%
    21:00 +21°C° 0 mm 1 mps 748 mmHg 88%
    22:00 +21°C° 0 mm 1 mps 748 mmHg 89%
    23:00 +21°C° 0 mm 1 mps 748 mmHg 89%

    Day after tomorrow, 8 June, Monday

    Time Temperature Precipitation Wind Pressure Humidity
    00:00 +20°C° 0 mm 1 mps 749 mmHg 90%
    01:00 +20°C° 0 mm 1 mps 749 mmHg 91%
    02:00 +17°C° 0 mm 0 mps 749 mmHg 91%
    03:00 +17°C° 0 mm 0 mps 749 mmHg 92%
    04:00 +18°C° 0 mm 0 mps 749 mmHg 91%
    05:00 +20°C° 0 mm 1 mps 749 mmHg 91%
    06:00 +21°C° 0 mm 1 mps 749 mmHg 91%
    07:00 +22°C° 0 mm 1 mps 749 mmHg 88%
    08:00 +23°C° 0 mm 1 mps 749 mmHg 85%
    09:00 +24°C° 0 mm 2 mps 749 mmHg 82%
    10:00 +25°C° 0.1 mm 2 mps 749 mmHg 78%
    11:00 +26°C° 0.1 mm 2 mps 749 mmHg 75%
    12:00 +27°C° 0.1 mm 2 mps 749 mmHg 72%
    13:00 +27°C° 0.4 mm 3 mps 749 mmHg 73%
    14:00 +27°C° 0.4 mm 3 mps 749 mmHg 75%
    15:00 +27°C° 0.4 mm 4 mps 749 mmHg 76%
    16:00 +26°C° 0.4 mm 4 mps 749 mmHg 78%
    17:00 +26°C° 0.4 mm 3 mps 748 mmHg 81%
    18:00 +26°C° 0.4 mm 3 mps 748 mmHg 84%
    19:00 +24°C° 0.1 mm 3 mps 749 mmHg 87%
    20:00 +22°C° 0.1 mm 3 mps 749 mmHg 90%
    21:00 +21°C° 0.1 mm 3 mps 749 mmHg 93%
    22:00 +20°C° 0 mm 3 mps 749 mmHg 93%
    23:00 +19°C° 0 mm 3 mps 749 mmHg 92%

    9 June, Tuesday

    Time Temperature Precipitation Wind Pressure Humidity
    00:00 +18°C° 0 mm 3 mps 749 mmHg 92%
    01:00 +18°C° 0 mm 3 mps 749 mmHg 92%
    02:00 +17°C° 0 mm 3 mps 749 mmHg 92%
    03:00 +17°C° 0 mm 2 mps 749 mmHg 93%
    04:00 +17°C° 0 mm 3 mps 749 mmHg 92%
    05:00 +18°C° 0 mm 3 mps 749 mmHg 92%
    06:00 +18°C° 0 mm 3 mps 750 mmHg 91%
    07:00 +19°C° 0 mm 3 mps 750 mmHg 88%
    08:00 +21°C° 0 mm 3 mps 750 mmHg 85%
    09:00 +22°C° 0 mm 3 mps 750 mmHg 82%
    10:00 +24°C° 0 mm 3 mps 750 mmHg 79%
    11:00 +25°C° 0 mm 4 mps 750 mmHg 76%
    12:00 +25°C° 0 mm 4 mps 750 mmHg 72%
    13:00 +26°C° 0.1 mm 4 mps 750 mmHg 72%
    14:00 +26°C° 0.1 mm 4 mps 750 mmHg 71%
    15:00 +26°C° 0.1 mm 3 mps 749 mmHg 71%
    16:00 +25°C° 0.6 mm 3 mps 749 mmHg 73%
    17:00 +25°C° 0.6 mm 3 mps 749 mmHg 76%
    18:00 +25°C° 0.6 mm 2 mps 749 mmHg 79%
    19:00 +23°C° 0.2 mm 2 mps 749 mmHg 83%
    20:00 +21°C° 0.2 mm 2 mps 749 mmHg 87%
    21:00 +19°C° 0.2 mm 2 mps 749 mmHg 91%
    22:00 +19°C° 0 mm 2 mps 749 mmHg 92%
    23:00 +18°C° 0 mm 2 mps 749 mmHg 93%

    10 June, Wednesday

    Time Temperature Precipitation Wind Pressure Humidity
    00:00 +17°C° 0 mm 2 mps 749 mmHg 94%
    01:00 +17°C° 0 mm 2 mps 749 mmHg 94%
    02:00 +17°C° 0 mm 2 mps 749 mmHg 94%
    03:00 +16°C° 0 mm 2 mps 749 mmHg 95%
    04:00 +17°C° 0 mm 2 mps 749 mmHg 94%
    05:00 +17°C° 0 mm 2 mps 749 mmHg 94%
    06:00 +18°C° 0 mm 2 mps 749 mmHg 94%
    07:00 +19°C° 0.1 mm 2 mps 749 mmHg 90%
    08:00 +20°C° 0.1 mm 2 mps 749 mmHg 87%
    09:00 +23°C° 0.1 mm 2 mps 749 mmHg 83%
    10:00 +23°C° 1.1 mm 2 mps 749 mmHg 79%
    11:00 +24°C° 1.1 mm 2 mps 749 mmHg 74%
    12:00 +25°C° 1.1 mm 3 mps 749 mmHg 70%
    13:00 +26°C° 1 mm 3 mps 748 mmHg 70%
    14:00 +26°C° 1 mm 3 mps 748 mmHg 70%
    15:00 +26°C° 1 mm 3 mps 748 mmHg 70%
    16:00 +26°C° 1 mm 2 mps 747 mmHg 73%
    17:00 +25°C° 1 mm 2 mps 747 mmHg 77%
    18:00 +25°C° 1 mm 2 mps 747 mmHg 80%
    19:00 +24°C° 0.3 mm 2 mps 747 mmHg 83%
    20:00 +21°C° 0.3 mm 2 mps 747 mmHg 86%
    21:00 +20°C° 0.3 mm 2 mps 747 mmHg 90%
    22:00 +20°C° 0.1 mm 2 mps 747 mmHg 90%
    23:00 +19°C° 0.1 mm 2 mps 747 mmHg 91%

    11 June, Thursday

    Time Temperature Precipitation Wind Pressure Humidity
    00:00 +18°C° 0.1 mm 2 mps 747 mmHg 92%
    01:00 +18°C° 0 mm 2 mps 747 mmHg 93%
    02:00 +18°C° 0 mm 2 mps 747 mmHg 93%
    03:00 +17°C° 0 mm 2 mps 747 mmHg 94%
    04:00 +18°C° 0.1 mm 2 mps 747 mmHg 94%
    05:00 +18°C° 0.1 mm 2 mps 747 mmHg 94%
    06:00 +19°C° 0.1 mm 2 mps 747 mmHg 94%
    07:00 +20°C° 0 mm 2 mps 747 mmHg 91%
    08:00 +21°C° 0 mm 2 mps 747 mmHg 87%
    09:00 +23°C° 0 mm 2 mps 746 mmHg 84%
    10:00 +24°C° 0 mm 2 mps 746 mmHg 80%
    11:00 +25°C° 0 mm 2 mps 746 mmHg 76%
    12:00 +26°C° 0 mm 2 mps 746 mmHg 72%
    13:00 +26°C° 1.1 mm 2 mps 746 mmHg 72%
    14:00 +27°C° 1.1 mm 2 mps 745 mmHg 72%
    15:00 +27°C° 1.1 mm 2 mps 745 mmHg 72%
    16:00 +27°C° 0.5 mm 2 mps 745 mmHg 75%
    17:00 +26°C° 0.5 mm 2 mps 745 mmHg 79%
    18:00 +26°C° 0.5 mm 1 mps 745 mmHg 82%
    19:00 +25°C° 0.3 mm 1 mps 745 mmHg 84%
    20:00 +24°C° 0.3 mm 1 mps 745 mmHg 85%
    21:00 +22°C° 0.3 mm 1 mps 744 mmHg 87%
    22:00 +22°C° 0.1 mm 1 mps 744 mmHg 87%
    23:00 +20°C° 0.1 mm 0 mps 744 mmHg 88%
    Show more